Alpena, MI

10:09 PM EST on January 22, 2018 (GMT -0500)
Alpena County Regional

Weather History for KAPN - October, 2012

Change the Weather History Date:

Thursday, October 18, 2012

  Actual Average Record
Temperature  
Mean Temperature 50 °F 45 °F  
Max Temperature 61 °F 55 °F 85 °F (1950)
Min Temperature 38 °F 36 °F 20 °F (1952)
Degree Days  
Heating Degree Days 15 20  
Month to date heating degree days 305 300  
Since 1 July heating degree days 608 657  
Cooling Degree Days 0 0  
Month to date cooling degree days 0 0  
Year to date cooling degree days 482 289  
Moisture  
Dew Point 48 °F    
Average Humidity 81    
Maximum Humidity 96    
Minimum Humidity 66    
Precipitation  
Precipitation 0.03 in 0.08 in 1.47 in (2007)
Month to date precipitation 3.12 1.60  
Year to date precipitation 22.76 23.30  
Snow  
Snow 0.00 in 0.00 in 1.80 in (1930)
Month to date snowfall T 0.1  
Since 1 July snowfall T 0.1  
Snow Depth 0.00 in    
Sea Level Pressure  
Sea Level Pressure 29.48 in    
Wind  
Wind Speed 11 mph (SSE)    
Max Wind Speed 21 mph    
Max Gust Speed 30 mph    
Visibility 10 miles    
Events Rain    
T = Trace of Precipitation, MM = Missing Value Source: NWS Daily Summary

Daily Weather History Graph

Daily Weather History Graph

Search for Another Location

Airport or City:

Trip Planner

Search our weather history database for the weather conditions in past years. The results will help you decide how hot, cold, wet, or windy it might be!

Date:

Astronomy

Oct. 18, 2012 Rise Set
Actual Time 7:54 AM EDT 6:43 PM EDT
Civil Twilight 7:24 AM EDT 7:12 PM EDT
Nautical Twilight 6:50 AM EDT 7:47 PM EDT
Astronomical Twilight 6:16 AM EDT 8:21 PM EDT
Moon 11:45 AM EDT (10/18) 9:06 PM EDT (10/18)
Length of Visible Light 11h 48m
Length of Day
10h 48m
Waxing Crescent, 14% of the Moon is Illuminated
Oct 18
Waxing Crescent
Oct 21
First Quarter
Oct 29
Full
Nov 6
Last Quarter
Nov 13
New

Hourly Weather History & Observations

Time (EDT) Temp. Windchill Dew Point Humidity Pressure Visibility Wind Dir Wind Speed Gust Speed Precip Events Conditions
12:54 AM 61.0 °F - 52.0 °F 72% 29.52 in 10.0 mi South 11.5 mph - N/A   Overcast
1:54 AM 59.0 °F - 53.1 °F 81% 29.52 in 10.0 mi South 9.2 mph - N/A   Overcast
2:28 AM 59.0 °F - 53.6 °F 82% 29.52 in 10.0 mi SSE 12.7 mph - N/A   Overcast
2:54 AM 60.1 °F - 53.1 °F 78% 29.51 in 10.0 mi South 16.1 mph 25.3 mph N/A   Overcast
3:18 AM 57.2 °F - 53.6 °F 88% 29.50 in 10.0 mi SSE 12.7 mph - 0.00 in   Overcast
3:54 AM 57.9 °F - 53.1 °F 84% 29.48 in 10.0 mi SSE 16.1 mph 23.0 mph 0.00 in   Mostly Cloudy
4:21 AM 57.2 °F - 53.6 °F 88% 29.46 in 10.0 mi SE 15.0 mph 26.5 mph N/A   Mostly Cloudy
4:54 AM 55.9 °F - 53.1 °F 90% 29.45 in 10.0 mi SE 13.8 mph 20.7 mph 0.00 in Rain Light Rain
5:04 AM 55.4 °F - 53.6 °F 94% 29.44 in 10.0 mi ESE 12.7 mph - 0.00 in   Mostly Cloudy
5:29 AM 53.6 °F - 53.6 °F 100% 29.43 in 10.0 mi SE 15.0 mph - 0.00 in   Scattered Clouds
5:54 AM 54.0 °F - 53.1 °F 97% 29.41 in 10.0 mi SE 13.8 mph 20.7 mph 0.00 in   Clear
6:54 AM 55.0 °F - 52.0 °F 89% 29.41 in 10.0 mi SE 16.1 mph 23.0 mph N/A   Mostly Cloudy
7:54 AM 55.9 °F - 50.0 °F 80% 29.39 in 10.0 mi SE 17.3 mph 25.3 mph N/A   Overcast
8:00 AM 55.4 °F - 48.2 °F 77% 29.39 in 10.0 mi SE 16.1 mph 26.5 mph N/A   Mostly Cloudy
8:54 AM 55.9 °F - 48.9 °F 77% 29.39 in 10.0 mi SE 15.0 mph 21.9 mph N/A   Overcast
9:54 AM 55.9 °F - 48.0 °F 75% 29.38 in 10.0 mi ESE 17.3 mph 24.2 mph N/A   Overcast
10:54 AM 57.0 °F - 48.9 °F 74% 29.38 in 10.0 mi ESE 19.6 mph 26.5 mph N/A   Overcast
11:54 AM 55.9 °F - 50.0 °F 80% 29.39 in 10.0 mi SE 16.1 mph 20.7 mph 0.00 in Rain Light Rain
12:33 PM 55.4 °F - 50.0 °F 82% 29.38 in 10.0 mi SSE 15.0 mph 25.3 mph 0.00 in   Overcast
12:48 PM 55.4 °F - 48.2 °F 77% 29.39 in 10.0 mi SSW 15.0 mph 24.2 mph 0.00 in Rain Light Rain
12:54 PM 55.0 °F - 46.9 °F 74% 29.40 in 10.0 mi SSW 9.2 mph 20.7 mph 0.00 in   Overcast
1:54 PM 55.0 °F - 45.0 °F 69% 29.42 in 10.0 mi South 11.5 mph - N/A   Overcast
2:54 PM 52.0 °F - 48.0 °F 86% 29.46 in 10.0 mi SSE 10.4 mph - 0.02 in Rain Light Rain
3:42 PM 51.8 °F - 48.2 °F 88% 29.47 in 10.0 mi SSE 12.7 mph - 0.00 in   Overcast
3:54 PM 52.0 °F - 48.9 °F 89% 29.48 in 10.0 mi SSE 16.1 mph - 0.00 in   Overcast
4:28 PM 51.8 °F - 46.4 °F 82% 29.48 in 10.0 mi South 13.8 mph - 0.01 in Rain Light Rain
4:54 PM 52.0 °F - 46.9 °F 83% 29.52 in 10.0 mi South 16.1 mph 23.0 mph 0.01 in   Overcast
5:08 PM 51.8 °F - 46.4 °F 82% 29.52 in 10.0 mi South 15.0 mph 26.5 mph 0.00 in Rain Light Rain
5:54 PM 50.0 °F - 43.0 °F 77% 29.55 in 10.0 mi South 10.4 mph - 0.00 in   Scattered Clouds
6:54 PM 46.9 °F - 43.0 °F 86% 29.59 in 10.0 mi SE 8.1 mph - N/A   Partly Cloudy
7:54 PM 46.0 °F 43.9 °F 43.0 °F 89% 29.61 in 10.0 mi SE 4.6 mph - N/A   Mostly Cloudy
8:54 PM 46.9 °F - 43.0 °F 86% 29.64 in 10.0 mi SW 4.6 mph - N/A   Overcast
9:54 PM 43.0 °F - 41.0 °F 93% 29.65 in 10.0 mi Calm Calm - N/A   Clear
10:54 PM 39.0 °F - 37.9 °F 96% 29.66 in 9.0 mi Calm Calm - N/A   Partly Cloudy
11:54 PM 41.0 °F 39.0 °F 39.9 °F 96% 29.65 in 10.0 mi SE 3.5 mph - N/A   Overcast